Flag for U.S.A. Weather past 2 weeks in Winamac, Indiana, U.S.A.

Now
63 °F

Clear.


Feels Like: 63 °F
Forecast: 53 / 76 °F
Wind: 5 mph from Southeast

Location: Porter County Municipal Airport

Current Time: Apr 17, 2015 at 11:59:23 PM

Latest Report: Apr 17, 2015 at 10:56 PM


Visibility: 10 mi

Pressure: 30.03 "Hg

Humidity: 54%

Dew point: 46 °F

Location of WinamacLocation

Historic Weather in Winamac — Graph

°F

Winamac temperature yesterday

Maximum temperature yesterday: 63 °F (at 3:56 PM)
Minimum temperature yesterday: 47 °F (at 3:56 AM)
Average temperature yesterday: 52 °F

Past Weeks' High & Low Weather Summary

 TemperatureHumidityPressure
High76 °F (Apr 17, 2:56 PM)100% (Apr 3, 1:56 AM)30.31 "Hg (Apr 3, 1:56 AM)
Low26 °F (Apr 4, 6:56 AM)14% (Apr 5, 3:56 PM)29.50 "Hg (Apr 9, 11:56 PM)
Average52 °F61%30.05 "Hg
* Reported Apr 2 9:56 PM — Apr 17 9:56 PM, Winamac, Weather by CustomWeather, © 2015

Note: Actual official high and low records may vary slightly from our data, if they occured in-between our weather recording intervals... More about our weather records

Advertising

Winamac weather history for previous 24 hours

 ConditionsComfort  
Time TempWeatherWind HumidityBarometerVisibility
9:56 PM
Fri, Apr 17
65 °FClear.5 mph51%30.02 "Hg10 mi
8:56 PM69 °FClear.No wind44%30.01 "Hg10 mi
7:56 PM74 °FOvercast.No wind37%30.01 "Hg10 mi
6:56 PM74 °FOvercast.6 mph37%30.01 "Hg10 mi
5:56 PM75 °FPartly sunny.5 mph32%30.01 "Hg10 mi
4:56 PM75 °FScattered clouds.5 mph32%30.01 "Hg10 mi
3:56 PM76 °FPartly sunny.No wind32%30.03 "Hg10 mi
2:56 PM76 °FSunny.6 mph32%30.05 "Hg10 mi
1:56 PM74 °FSunny.6 mph33%30.07 "Hg10 mi
12:56 PM72 °FSunny.6 mph41%30.10 "Hg10 mi
11:56 AM69 °FSunny.5 mph49%30.11 "Hg10 mi
10:56 AM62 °FSunny.6 mph75%30.14 "Hg6 mi
9:56 AM56 °FFog.7 mph87%30.14 "Hg2 mi
8:55 AM51 °FFog.6 mph89%30.13 "Hg2 mi
7:56 AM44 °FFog.No wind96%30.11 "Hg1 mi
7:00 AM42 °FFog.No wind96%30.08 "Hg0 mi
5:56 AM46 °FFog.No wind86%30.10 "Hg4 mi
4:56 AM47 °FFog.5 mph86%30.11 "Hg6 mi
3:56 AM45 °FFog.5 mph90%30.10 "Hg6 mi
2:56 AM46 °FClear.No wind86%30.09 "Hg7 mi
1:56 AM45 °FClear.3 mph86%30.10 "Hg7 mi
12:56 AM46 °FClear.3 mph86%30.11 "Hg9 mi
11:56 PM
Thu, Apr 16
47 °FClear.No wind83%30.11 "Hg10 mi
Weather by CustomWeather, © 2015

See weather overviewHow to use our weather pages